{"data":{"norad_id":59661,"intl_designator":"2024-084H","name":"STARLINK-31880","alt_names":[],"object_type":"PAYLOAD","status":"ACTIVE","operator":null,"country":"US","launch_date":"2024-05-06","launch_site_code":"AFETR","launch_vehicle":null,"mission":null,"orbit_class":"UNKNOWN","rcs_meters":null,"size_class":null,"mass_kg":null,"dimensions":null,"purposes":["comms"],"wikipedia_slug":null,"has_3d_model":false,"image_url":null,"decayed_at":null,"tle_current":{"epoch":"2026-05-24T22:08:15.679680Z","epoch_age_seconds":85044,"freshness":"FRESH","line1":"1 59661U 24084H   26144.92240370  .00005269  00000+0  20081-3 0  9994","line2":"2 59661  43.0001 327.6746 0001436 268.1167  91.9520 15.27585567116079","mean_motion":15.27585567,"eccentricity":0.0001436,"inclination_deg":43.0001,"raan_deg":327.6746,"arg_perigee_deg":268.1167,"mean_anomaly_deg":91.952,"bstar":0.00020081,"rev_number":11607,"period_min":94.26640517611,"perigee_km":482.04716255992,"apogee_km":484.0176904192,"semimajor_km":6861.1694264896,"source":"CELESTRAK","updated_at":"2026-05-25T13:38:19.018983Z"}}}